FW7352 Weather Reports


Display with metric or nautical units.
time (UTC)temp
F
wind
direction
speed
MPH
gust
MPH
rain 1hr
in
rain 24hr
in
rain mn
in
humidity
%
barometer
mb
20260508033058 37 219 2.0 9.0 0.00 0.00 0.00 71 1016.5
20260508031556 38 245 3.0 10.0 0.00 0.00 0.00 70 1016.5
20260508030100 38 250 3.0 10.0 0.00 0.00 0.00 72 1016.3
20260508024615 39 207 5.0 12.0 0.00 0.00 0.00 73 1016.2
20260508023049 39 221 4.0 10.0 0.00 0.00 0.00 73 1016.0
20260508021550 40 242 4.0 14.0 0.00 0.00 0.00 72 1015.9
20260508020053 40 244 3.0 13.0 0.00 0.00 0.00 74 1015.8
20260508014552 40 239 5.0 15.0 0.00 0.00 0.00 73 1015.8
20260508013046 40 226 5.0 11.0 0.00 0.00 0.00 73 1015.5
20260508011548 41 229 4.0 11.0 0.00 0.00 0.00 73 1015.3
20260508010054 41 284 4.0 15.0 0.00 0.00 0.00 72 1015.3
20260508004556 41 246 3.0 8.0 0.00 0.00 0.00 72 1015.1
20260508003049 42 271 5.0 13.0 0.00 0.00 0.00 70 1015.0
20260508001550 43 265 2.0 10.0 0.00 0.00 0.00 70 1014.9
20260508000046 44 298 3.0 14.0 0.00 0.00 0.00 68 1014.8
20260507234553 45 233 6.0 11.0 0.00 0.00 0.00 64 1014.7
20260507233058 46 261 3.0 10.0 0.00 0.00 0.00 67 1014.5
20260507231548 46 250 5.0 13.0 0.00 0.00 0.00 65 1014.5
20260507230105 47 252 6.0 16.0 0.00 0.00 0.00 63 1014.2
20260507224553 48 262 7.0 16.0 0.00 0.00 0.00 62 1014.2
20260507223050 48 302 8.0 18.0 0.00 0.00 0.00 63 1014.1
20260507221549 49 248 8.0 20.0 0.00 0.00 0.00 63 1013.9
20260507220057 49 262 5.0 16.0 0.00 0.00 0.00 62 1013.6
20260507214548 50 250 6.0 17.0 0.00 0.01 0.00 63 1013.5
20260507213052 52 262 6.0 18.0 0.00 0.01 0.00 60 1013.4
20260507211550 52 267 8.0 16.0 0.00 0.01 0.00 63 1013.4
20260507210105 52 249 8.0 19.0 0.00 0.01 0.00 62 1013.2
20260507204549 53 272 7.0 24.0 0.00 0.10 0.00 61 1013.1
20260507203113 53 319 7.0 20.0 0.00 0.10 0.00 61 1013.4
20260507201550 54 286 6.0 16.0 0.00 0.10 0.00 61 1013.3
20260507200053 53 209 5.0 14.0 0.00 0.10 0.00 63 1013.1
20260507194602 54 260 8.0 14.0 0.00 0.11 0.00 63 1013.4
20260507193050 55 306 5.0 11.0 0.00 0.11 0.00 62 1013.6
20260507191549 54 273 4.0 14.0 0.00 0.11 0.00 63 1013.6
20260507190055 55 279 6.0 15.0 0.00 0.11 0.00 67 1013.7
20260507184550 56 245 7.0 14.0 0.00 0.13 0.00 63 1013.7
20260507183047 54 262 5.0 14.0 0.00 0.13 0.00 75 1013.6
20260507181549 53 228 5.0 18.0 0.00 0.13 0.00 72 1013.5
20260507180048 52 265 5.0 14.0 0.00 0.13 0.00 75 1013.7
20260507174547 50 319 6.0 15.0 0.00 0.13 0.00 77 1013.9
20260507173125 49 225 4.0 14.0 0.00 0.13 0.00 78 1014.1
20260507171554 50 279 6.0 14.0 0.00 0.13 0.00 77 1014.3
20260507170050 50 296 3.0 14.0 0.00 0.13 0.00 81 1014.4
20260507164552 48 293 4.0 15.0 0.00 0.13 0.00 81 1014.5
20260507163047 48 306 3.0 18.0 0.00 0.13 0.00 82 1014.6
20260507161552 50 221 3.0 11.0 0.00 0.13 0.00 81 1014.8
20260507160101 47 236 4.0 10.0 0.00 0.13 0.00 85 1015.0
20260507154557 48 0 3.0 14.0 0.00 0.13 0.00 86 1015.3
20260507153057 47 257 3.0 13.0 0.00 0.13 0.00 86 1015.1
20260507151552 45 246 5.0 13.0 0.00 0.13 0.00 86 1015.3
20260507150051 44 338 5.0 11.0 0.00 0.13 0.00 86 1015.1
20260507144612 43 305 4.0 12.0 0.00 0.13 0.00 91 1015.3
20260507143059 41 275 2.0 7.0 0.00 0.13 0.00 96 1015.4
20260507141557 40 335 2.0 8.0 0.00 0.13 0.00 99 1015.7
20260507140053 39 281 2.0 7.0 0.00 0.13 0.00 99 1015.9
20260507134553 38 278 2.0 9.0 0.00 0.15 0.00 100 1015.9
20260507133125 37 234 3.0 9.0 0.00 0.15 0.00 100 1016.0
20260507131548 38 252 4.0 7.0 0.00 0.15 0.00 100 1016.2
20260507130058 39 348 3.0 7.0 0.00 0.15 0.00 100 1016.0
20260507124555 39 298 1.0 4.0 0.00 0.22 0.00 100 1016.2
20260507123052 39 298 2.0 6.0 0.00 0.22 0.00 100 1016.2
20260507121552 40 0 0.0 3.0 0.00 0.22 0.00 100 1016.0
20260507120048 40 355 0.0 6.0 0.00 0.22 0.00 100 1015.9
20260507114559 40 28 3.0 11.0 0.00 0.31 0.00 100 1015.6
20260507113047 41 296 1.0 7.0 0.00 0.31 0.00 100 1015.5
20260507111549 41 232 3.0 9.0 0.00 0.31 0.00 100 1015.3
20260507110052 41 286 3.0 9.0 0.00 0.31 0.00 100 1015.1
20260507104551 41 319 2.0 6.0 0.00 0.40 0.00 100 1015.2
20260507103054 41 250 2.0 5.0 0.00 0.40 0.00 100 1015.0
20260507101551 41 242 2.0 7.0 0.00 0.40 0.00 100 1015.1
20260507100053 42 272 2.0 8.0 0.00 0.40 0.00 100 1015.3
20260507094559 42 269 2.0 6.0 0.00 0.42 0.00 100 1015.0
20260507093054 42 252 2.0 11.0 0.00 0.42 0.00 100 1015.0
20260507091552 42 219 3.0 7.0 0.00 0.42 0.00 100 1015.0
20260507090051 42 240 2.0 9.0 0.00 0.42 0.00 100 1014.6
20260507084557 43 267 4.0 9.0 0.00 0.42 0.00 100 1015.0
20260507083056 43 254 2.0 10.0 0.00 0.42 0.00 100 1014.9
20260507081557 43 246 0.0 7.0 0.00 0.42 0.00 100 1014.7
20260507080056 43 262 4.0 7.0 0.00 0.42 0.00 100 1015.1
20260507074550 44 251 1.0 9.0 0.00 0.42 0.00 100 1015.2
20260507073101 44 263 2.0 7.0 0.00 0.42 0.00 100 1015.4
20260507071553 44 262 1.0 3.0 0.00 0.42 0.00 100 1015.3
20260507070058 44 248 2.0 10.0 0.00 0.42 0.00 100 1015.2
20260507064555 44 268 2.0 10.0 0.00 0.42 0.00 100 1015.0
20260507063049 44 235 3.0 8.0 0.00 0.42 0.00 100 1015.2
20260507061549 45 269 5.0 10.0 0.00 0.42 0.00 100 1015.3
20260507060056 46 261 4.0 8.0 0.00 0.42 0.00 100 1015.5
20260507054549 46 262 3.0 8.0 0.00 0.42 0.00 100 1015.6
20260507053058 46 225 5.0 12.0 0.00 0.42 0.00 100 1015.7
20260507051551 47 270 5.0 11.0 0.00 0.42 0.00 100 1015.8
20260507050053 47 254 3.0 7.0 0.00 0.42 0.00 100 1015.9
20260507044559 48 243 4.0 10.0 0.00 0.42 0.00 100 1015.7
20260507043056 48 244 3.0 9.0 0.00 0.42 0.00 100 1015.7
20260507041554 48 247 4.0 10.0 0.00 0.42 0.00 100 1015.4
20260507040050 48 253 3.0 8.0 0.00 0.42 0.00 100 1015.5
20260507034553 48 234 3.0 8.0 0.00 0.42 0.42 100 1015.3